This is the latest recevied weather packets stored in our database for station/object N4RCT. If no packets are shown the sender has not sent any weather packets the latest 1 day(s).
| Time | Temp. | Humidity | Pressure | Rain* | Wind** | Luminosity | Snow |
|---|---|---|---|---|---|---|---|
| 1778005659 | 25.56° C | 41% | 1013.2 hPa | 0 mm | 0 m/s | 394 W/m² | - |
| 1778005355 | 26.11° C | 42% | 1013.2 hPa | 0 mm | 0.45 m/s, 187° | 736 W/m² | - |
| 1778005052 | 26.11° C | 43% | 1013.3 hPa | 0 mm | 0.45 m/s, 66° | 691 W/m² | - |
| 1778004750 | 26.11° C | 45% | 1013.1 hPa | 0 mm | 0.45 m/s, 158° | 632 W/m² | - |
| 1778004446 | 25.56° C | 45% | 1013.3 hPa | 0 mm | 0.45 m/s, 141° | 825 W/m² | - |
| 1778004142 | 25° C | 45% | 1013.2 hPa | 0 mm | 0 m/s | 707 W/m² | - |
| 1778003839 | 25° C | 45% | 1013.5 hPa | 0 mm | 0.45 m/s, 112° | 568 W/m² | - |
| 1778003535 | 26.11° C | 42% | 1013.5 hPa | 0 mm | 0 m/s | 367 W/m² | - |
| 1778003232 | 25.56° C | 41% | 1013.3 hPa | 0 mm | 0.89 m/s, 66° | 801 W/m² | - |
| 1778002929 | 25.56° C | 42% | 1013.8 hPa | 0 mm | 0.45 m/s, 202° | 825 W/m² | - |
| 1778002625 | 25.56° C | 41% | 1014.3 hPa | 0 mm | 0.45 m/s, 109° | 691 W/m² | - |
| 1778002322 | 25.56° C | 40% | 1014.1 hPa | 0 mm | 0 m/s | 637 W/m² | - |
| 1778002019 | 25.56° C | 41% | 1014 hPa | 0 mm | 1.34 m/s, 220° | 790 W/m² | - |
| 1778001716 | 26.11° C | 42% | 1014.3 hPa | 0 mm | 1.34 m/s, 236° | 567 W/m² | - |
| 1778001415 | 25.56° C | 45% | 1014.2 hPa | 0 mm | 0.89 m/s, 37° | 728 W/m² | - |
| 1778001113 | 25° C | 48% | 1014.3 hPa | 0 mm | 0 m/s | 705 W/m² | - |
| 1778000810 | 25° C | 47% | 1014.2 hPa | 0 mm | 0.45 m/s, 62° | 323 W/m² | - |
| 1778000506 | 25° C | 47% | 1014.5 hPa | 0 mm | 0.89 m/s, 232° | 780 W/m² | - |
| 1778000201 | 25° C | 47% | 1014.4 hPa | 0 mm | 0.89 m/s, 114° | 766 W/m² | - |
| 1777999897 | 25° C | 45% | 1014.6 hPa | 0 mm | 0.89 m/s, 221° | 783 W/m² | - |
| 1777999593 | 25° C | 46% | 1014.3 hPa | 0 mm | 0 m/s | 769 W/m² | - |
| 1777999291 | 24.44° C | 46% | 1014.3 hPa | 0 mm | 1.34 m/s, 184° | 194 W/m² | - |
| 1777998989 | 24.44° C | 49% | 1014.4 hPa | 0 mm | 1.34 m/s, 206° | 787 W/m² | - |
| 1777998686 | 23.89° C | 51% | 1014.5 hPa | 0 mm | 0 m/s | 809 W/m² | - |
| 1777998383 | 24.44° C | 51% | 1014.5 hPa | 0 mm | 1.79 m/s, 221° | 603 W/m² | - |
* Rain latest hour (hover to see other rain measurements)
** Current wind speed in m/s (hover to see current wind gust speed)